GFSGBSN_500_rhum_111.txt.gz
RH
36 35 45 45 44 30 17 17 25 27 33 36 36 31 21 16 11 53 54 6 7 9 11 19 37 20 14 13 20 17 16 16 14 14 14 15 14 13 11 9 7 6 6 6 6 6 6
69 65 68 70 69 63 60 39 28 30 38 34 27 18 10 15 47 62 10 10 14 31 29 28 40 26 15 19 23 26 24 21 18 17 16 15 15 14 11 9 7 7 6 7 8 8 8
86 88 78 80 84 75 67 64 74 58 43 20 17 25 79 68 38 12 12 11 18 29 32 28 29 34 20 36 30 34 32 27 26 22 19 17 16 15 13 11 10 10 9 9 11 11 10
96 96 96 96 96 95 95 96 95 69 36 66 82 61 56 16 10 10 16 19 16 24 35 36 28 31 30 36 40 38 35 39 39 32 24 20 18 15 13 13 12 14 16 14 11 12 10
94 97 97 84 75 83 90 96 95 91 73 38 22 42 15 13 13 14 14 14 25 32 31 33 43 46 44 43 40 36 35 36 37 32 28 22 19 17 16 16 16 15 15 13 14 8 7
87 87 93 92 67 64 72 72 50 48 55 50 30 17 19 21 22 24 33 39 38 37 48 50 44 41 43 42 39 38 38 37 35 31 27 23 21 21 19 14 16 14 12 12 12 8 6
69 76 76 77 48 44 69 44 47 23 22 56 26 29 35 44 55 55 53 56 58 67 61 61 53 51 51 51 46 39 38 37 32 28 25 21 20 19 14 13 12 11 9 7 6 5 5
75 42 45 55 65 71 67 66 75 82 81 56 70 62 67 85 87 79 76 92 82 81 67 65 58 48 54 51 44 44 42 36 30 25 20 18 17 13 13 13 11 9 7 5 5 5 6
92 89 53 48 56 59 62 64 75 63 59 73 87 94 96 94 86 79 60 62 70 77 67 44 54 51 56 53 49 44 37 29 25 21 20 17 18 17 16 14 11 8 10 10 9 9 8
83 85 98 89 79 81 87 91 94 98 96 98 93 92 94 92 75 75 77 80 78 86 73 39 48 40 44 44 41 33 26 22 21 20 18 21 19 17 16 15 32 12 20 17 16 26 21
43 47 54 59 69 71 85 88 87 94 95 91 83 85 87 83 71 80 82 82 79 82 64 45 39 37 36 38 36 31 28 27 25 21 18 19 19 17 14 23 35 30 30 23 36 31 25
72 63 59 62 60 56 52 58 66 74 73 72 76 85 89 82 81 86 82 74 71 54 52 46 46 44 42 40 40 32 25 22 23 22 15 15 12 13 23 37 38 40 37 47 39 39 33
100 94 94 84 68 60 56 63 63 59 62 65 71 82 88 86 78 70 66 48 41 63 49 43 49 47 43 40 37 34 23 21 19 16 10 23 26 42 50 48 48 32 44 55 46 47 41
79 94 100 98 93 91 91 89 86 81 84 87 89 87 88 84 74 65 51 35 40 61 58 57 60 57 47 40 33 23 16 12 12 15 12 16 60 66 58 55 48 36 47 72 51 38 37
25 27 29 31 40 55 62 63 56 54 59 61 58 59 56 52 49 45 44 24 47 56 46 42 50 55 51 41 22 15 12 17 25 49 45 57 63 73 57 46 41 42 59 62 56 60 55
9 9 10 10 11 14 18 18 18 17 17 18 15 12 15 20 15 30 50 41 32 33 24 26 29 40 46 39 33 24 18 32 48 89 66 64 76 95 74 56 44 49 60 79 77 62 80
8 8 7 7 6 6 6 5 5 5 5 5 5 5 6 7 7 18 23 22 29 45 62 64 66 68 50 61 30 23 37 68 93 85 59 92 100 95 82 67 61 54 75 86 90 85 98
9 8 8 7 6 6 6 5 5 5 5 5 4 5 5 5 6 9 12 20 48 93 69 51 95 62 51 56 90 44 56 68 38 35 100 100 97 99 97 80 68 55 58 97 96 100 100
10 10 10 9 9 8 8 7 6 6 6 6 6 6 5 5 6 7 7 9 26 27 35 100 100 69 56 57 48 8 13 9 34 71 89 97 100 100 100 88 90 81 91 92 98 100 100
22 17 13 11 10 9 9 8 8 8 8 10 41 35 31 12 13 18 10 7 9 14 49 55 46 92 97 65 17 7 9 23 52 67 77 100 100 98 100 93 86 99 100 97 93 98 100
25 21 20 19 18 20 20 19 19 17 19 68 100 100 100 87 50 39 20 12 9 21 96 37 24 11 13 24 13 8 15 26 76 69 100 100 100 100 100 99 88 100 95 99 94 86 96
37 37 36 33 33 30 25 24 27 25 34 100 100 100 88 44 60 45 28 60 13 9 48 72 90 57 22 17 19 19 30 45 74 91 100 100 100 100 100 100 97 100 100 92 90 100 99
50 45 41 36 30 26 24 21 19 13 84 100 100 97 58 56 71 83 23 30 30 55 42 23 21 35 34 23 27 36 42 66 76 92 99 100 100 100 98 100 100 93 96 100 100 100 100
31 30 28 23 21 21 22 25 19 16 97 100 100 96 64 100 100 98 93 38 29 90 94 79 35 30 32 46 86 79 67 88 81 100 100 99 100 100 100 100 94 82 84 96 100 100 92
25 23 24 24 19 11 10 23 16 36 100 100 100 86 67 97 100 100 97 67 79 100 99 99 76 84 88 87 100 93 71 100 100 100 100 100 100 100 98 94 98 87 93 96 72 29 10
30 26 23 17 15 12 19 15 76 100 100 100 98 91 65 69 92 85 86 79 77 95 100 100 83 100 100 100 100 99 96 100 100 100 100 100 100 100 100 100 96 72 33 17 8 11 18
34 38 46 16 13 23 21 70 100 100 99 96 84 76 62 56 55 56 78 93 84 96 100 100 100 91 98 97 100 100 100 100 98 100 100 100 100 100 100 92 54 15 6 7 13 21 18
50 68 59 35 23 26 74 98 100 100 83 74 77 57 36 38 96 97 85 96 100 100 99 93 85 90 99 100 100 100 100 99 99 100 100 100 100 94 32 9 5 8 12 23 23 18 34
99 100 67 25 33 89 94 100 100 76 72 44 42 47 90 100 100 100 98 100 100 100 100 100 99 97 97 100 100 100 100 90 98 100 100 93 64 19 9 6 10 14 27 26 22 35 53

GFSGBSN_500_rhum_114.txt.gz
RH
39 46 32 26 19 16 16 18 28 17 15 14 14 16 24 28 26 31 33 34 32 21 33 49 38 7 9 12 12 21 25 14 16 18 22 19 17 16 15 15 15 15 13 11 9 7 6
60 48 52 59 51 56 49 36 34 50 43 48 41 23 24 30 30 33 33 32 18 41 39 48 15 9 19 21 28 28 32 29 30 33 34 32 31 26 23 23 21 19 15 13 10 9 10
86 90 90 88 83 76 72 68 72 72 73 72 64 64 73 49 38 34 25 22 33 68 59 17 10 15 21 29 28 32 44 30 30 40 38 35 36 35 31 27 25 22 19 16 13 12 11
99 93 92 88 94 95 89 87 88 92 80 82 76 63 64 66 75 51 18 30 65 61 20 12 20 22 17 28 33 32 36 38 38 36 42 38 35 39 37 33 27 25 22 20 17 16 14
97 89 81 71 76 99 100 99 98 98 97 97 96 96 96 91 77 72 72 66 43 18 10 9 15 32 23 20 27 34 39 42 43 42 36 36 36 36 34 27 27 23 28 29 24 21 17
89 95 94 80 75 80 96 100 97 89 83 86 88 99 97 92 89 66 28 56 40 16 12 12 20 34 33 31 28 43 43 42 50 47 42 41 37 35 33 28 27 24 22 22 21 18 14
98 92 91 85 76 82 90 90 98 83 50 62 63 75 60 44 41 46 28 19 24 27 21 22 24 42 37 42 52 43 46 51 53 49 48 44 35 31 29 26 23 20 20 18 15 14 14
98 97 91 82 85 84 81 77 78 73 57 27 58 58 45 48 25 32 60 41 50 49 47 40 39 48 66 59 44 46 48 49 49 48 47 44 37 34 28 22 20 18 17 18 17 16 15
96 98 91 80 80 84 70 58 53 52 54 33 39 48 60 83 89 88 66 71 77 70 61 42 60 48 52 61 50 49 51 47 46 43 44 39 32 28 25 22 20 21 19 18 17 15 14
91 87 83 81 81 84 85 77 38 37 42 47 59 72 65 85 69 73 86 95 95 86 70 40 50 46 46 51 48 51 48 47 42 42 39 29 27 25 25 24 21 20 20 19 16 13 9
94 86 76 74 74 74 83 95 93 73 62 70 78 84 86 85 83 92 100 99 96 95 80 49 40 39 42 44 44 43 44 42 41 39 35 28 28 27 25 23 20 19 16 15 20 18 15
100 97 94 90 89 68 64 82 84 92 99 97 99 99 95 93 86 100 99 98 98 92 61 58 45 43 46 50 47 46 45 48 50 47 42 36 28 24 24 21 16 16 21 45 38 30 20
100 100 100 98 92 86 90 76 64 54 58 64 67 79 83 85 87 90 84 81 80 70 50 52 54 48 49 46 48 46 47 46 45 41 37 30 26 21 17 16 24 36 55 58 48 35 20
100 100 100 100 100 100 97 80 73 84 76 76 84 89 87 85 88 82 78 81 87 50 55 69 64 69 59 52 49 52 53 50 49 42 31 23 17 18 21 27 48 54 60 62 67 33 34
62 85 98 100 100 100 100 100 100 100 100 100 100 100 99 98 100 100 80 72 70 55 60 71 82 67 58 52 52 49 49 49 47 42 30 20 20 33 50 72 72 59 59 71 57 61 43
19 38 70 80 83 93 89 94 97 97 98 98 98 97 90 72 79 89 87 96 59 61 66 61 63 61 52 47 46 42 40 36 38 39 31 29 35 49 67 72 69 80 66 69 71 69 54
14 13 17 28 30 26 35 47 47 34 32 34 34 33 38 23 11 19 48 59 55 42 29 45 42 42 35 32 42 50 47 37 35 36 37 65 89 57 56 73 92 100 72 76 93 83 69
15 13 11 11 11 11 12 12 12 12 11 12 10 12 16 10 9 9 16 32 21 22 20 30 35 21 30 66 74 71 69 59 52 38 51 77 75 46 34 99 97 100 86 80 88 99 83
21 16 13 12 11 10 10 9 8 8 7 7 7 6 6 6 6 6 6 5 5 5 12 16 28 43 92 80 77 62 82 71 62 80 100 59 42 24 100 100 87 84 86 84 96 100 91
27 20 16 14 13 12 11 10 9 8 8 8 8 7 6 6 6 6 5 5 6 6 5 10 37 61 100 71 44 87 75 64 100 96 24 22 41 51 90 100 100 85 96 85 96 96 97
48 28 25 22 16 13 12 12 11 11 11 11 10 9 8 8 7 6 11 12 11 8 7 17 46 80 52 57 100 97 68 58 43 16 8 9 22 71 82 95 96 94 100 100 96 100 91
40 34 38 32 27 22 19 17 15 14 14 13 15 14 16 19 40 43 36 32 35 27 33 68 41 41 75 46 56 87 100 97 92 13 7 11 56 83 82 85 90 100 100 99 100 98 82
47 33 33 39 37 32 30 26 27 27 26 22 18 21 94 63 70 100 64 36 26 37 50 27 36 100 100 88 49 23 19 21 11 17 34 44 82 89 96 100 100 94 95 100 99 100 95
64 55 52 49 47 45 43 43 39 36 31 29 29 35 84 99 100 69 35 59 63 78 100 75 72 99 100 96 93 83 42 20 19 26 53 74 99 99 100 100 100 84 98 100 98 98 92
60 58 59 57 54 50 45 41 37 34 32 32 41 98 100 100 86 45 77 62 99 65 76 100 100 72 82 93 62 59 66 46 43 58 79 95 100 100 100 100 98 96 100 100 100 94 86
33 34 38 43 44 42 39 35 29 24 20 20 18 100 100 84 78 82 100 100 98 80 45 49 100 100 99 88 67 82 89 69 88 97 92 100 100 100 100 100 97 96 100 100 97 81 67
39 34 31 28 25 24 24 23 20 22 35 22 74 100 98 73 88 84 99 96 96 91 37 41 91 98 100 92 100 100 95 100 99 100 100 100 100 100 100 98 90 91 100 93 54 28 19
35 34 34 32 29 25 22 20 21 45 36 94 100 98 81 72 75 79 78 84 57 78 42 36 90 78 86 76 93 100 99 100 100 100 100 100 100 100 100 94 84 88 48 17 15 15 17
36 59 99 79 30 19 18 25 96 48 83 100 100 92 78 90 58 51 51 49 82 88 67 77 100 99 100 100 98 100 100 100 98 100 100 99 91 100 100 98 57 11 9 11 14 18 17

GFSGBSN_500_rhum_117.txt.gz
RH
17 16 15 12 11 9 9 9 9 8 8 8 8 8 8 9 9 10 9 10 20 20 26 21 26 30 27 46 47 26 11 13 14 14 27 22 15 18 26 25 24 21 20 20 19 19 16
65 52 70 45 26 24 24 25 21 24 24 18 14 10 11 11 21 14 13 12 20 22 23 22 28 28 31 43 38 21 11 14 16 20 25 30 24 22 24 27 28 28 25 24 23 24 22
88 99 94 100 95 86 81 66 61 54 57 57 49 46 36 26 27 43 46 49 44 40 44 38 36 36 41 52 31 17 16 19 26 34 37 41 42 28 25 30 33 33 32 30 30 28 26
96 96 100 97 92 95 92 85 85 88 86 88 85 82 76 70 71 67 64 68 66 67 62 61 60 51 54 42 18 16 21 21 27 29 33 32 54 45 36 36 37 34 32 35 35 32 28
99 100 97 99 100 100 94 94 96 92 80 77 88 95 95 90 91 86 85 79 70 79 78 73 55 52 52 28 16 18 26 29 23 24 33 40 41 42 42 39 35 34 32 33 33 31 30
98 96 98 98 99 99 96 99 95 84 75 76 89 94 91 90 90 95 94 95 90 83 76 65 60 53 40 26 21 18 21 33 35 35 39 50 48 43 51 44 38 35 34 32 30 29 26
100 94 98 97 99 98 98 96 89 86 78 73 82 95 96 92 86 90 89 94 87 76 65 66 58 60 51 35 30 24 25 36 55 51 58 55 49 50 52 46 41 37 31 29 27 24 22
98 99 89 98 97 98 98 97 97 91 84 77 86 92 97 81 73 67 62 65 53 48 45 44 45 42 32 43 44 42 40 48 56 52 50 53 47 50 50 47 44 40 34 31 28 24 22
100 100 91 99 98 96 99 99 98 94 88 76 80 78 85 88 73 47 40 46 50 65 54 46 51 52 49 45 49 61 52 51 44 43 54 51 47 47 47 47 45 38 32 28 25 24 24
84 98 100 100 98 99 98 98 99 95 91 80 72 66 70 71 64 28 39 58 68 76 69 42 54 50 59 67 60 60 52 46 38 43 44 40 47 46 43 40 36 31 27 26 26 24 22
100 97 99 95 98 100 98 99 98 100 98 90 73 62 47 55 54 54 55 54 62 74 65 50 39 44 54 56 55 49 47 44 44 41 40 38 38 39 38 36 34 32 31 28 26 25 24
100 100 100 100 100 96 100 100 100 100 100 100 96 78 66 48 42 52 50 65 73 80 60 58 44 47 52 56 52 48 46 44 48 46 44 42 45 44 43 43 42 38 31 25 24 24 23
100 100 100 100 100 100 92 85 92 95 99 100 100 98 93 95 85 83 92 98 100 80 53 64 58 56 55 52 50 51 51 48 48 48 46 46 42 44 42 39 35 29 22 20 22 22 25
81 98 100 100 100 100 100 100 100 99 92 84 87 96 97 100 100 99 100 100 93 52 54 73 65 59 53 53 57 54 52 49 55 57 54 49 46 48 42 32 26 24 24 30 38 33 31
31 54 82 100 100 100 100 100 100 100 100 100 97 87 91 91 98 100 100 100 61 49 49 63 85 62 53 53 61 67 59 55 53 52 49 48 45 44 40 31 31 41 49 68 75 58 54
25 26 33 49 82 100 100 100 100 100 100 100 100 100 99 100 100 100 100 92 54 54 60 58 71 82 63 61 64 66 64 51 47 45 46 42 41 42 43 40 46 67 74 84 77 72 72
38 34 27 24 30 46 89 100 100 100 100 100 100 100 100 100 100 100 97 84 68 60 70 68 61 68 71 64 61 53 50 43 41 38 38 38 57 42 46 50 83 77 64 79 89 88 91
88 56 40 31 23 23 33 46 91 100 100 97 100 98 100 100 100 100 90 81 71 64 66 62 63 57 51 36 36 42 43 38 36 32 42 55 96 87 85 100 87 83 44 87 88 93 93
96 97 66 43 30 23 21 26 31 37 50 87 96 99 95 45 33 74 81 71 66 67 59 38 27 31 31 33 47 42 38 28 57 63 80 82 88 72 72 76 66 42 39 100 100 94 80
89 100 100 60 39 26 26 27 25 24 23 21 22 25 21 20 40 21 21 22 20 17 15 12 11 14 16 17 30 36 30 61 72 73 76 92 96 86 95 96 39 34 87 100 100 92 78
92 94 100 99 35 30 32 31 28 27 24 25 20 16 15 13 12 9 10 9 8 7 7 7 6 6 10 32 39 54 43 72 88 53 52 81 96 100 100 60 17 28 93 98 100 78 91
100 100 100 96 47 27 24 27 30 28 30 32 29 17 12 10 10 9 10 9 8 8 8 8 8 11 43 62 57 58 94 100 81 59 100 88 87 100 59 21 13 38 100 83 71 89 100
100 100 100 100 49 44 44 25 21 19 20 23 22 21 15 13 13 14 11 11 16 36 25 15 11 18 29 18 65 75 98 79 63 83 100 100 99 100 37 14 46 78 63 87 93 100 100
98 100 100 100 56 48 51 49 35 31 24 20 16 17 19 18 17 18 18 32 47 59 39 43 36 27 33 85 53 99 100 89 58 55 100 100 93 27 16 30 82 80 93 100 100 100 92
100 100 100 100 70 56 47 47 46 46 42 35 29 27 23 17 26 21 41 55 38 35 37 35 68 66 65 99 100 100 100 100 90 70 54 36 20 24 58 54 70 70 82 95 100 100 97
89 90 100 100 100 86 66 61 58 52 48 41 40 39 35 34 72 55 50 73 77 67 41 40 52 82 93 88 100 100 100 100 99 100 67 51 62 93 86 86 79 78 100 100 100 92 100
78 89 99 98 87 78 74 66 59 56 50 44 39 37 41 40 87 99 100 92 100 100 61 62 58 98 100 100 82 89 86 91 70 53 61 90 100 94 100 94 88 95 100 98 96 97 96
100 58 48 44 47 52 55 56 51 46 43 39 36 36 49 92 100 100 97 95 100 94 71 85 82 65 97 100 99 77 59 49 56 85 100 97 100 99 100 92 85 96 100 100 100 91 53
100 68 52 54 38 40 41 39 37 33 29 26 27 24 64 100 100 94 97 94 96 93 63 80 51 49 79 100 100 83 99 100 99 100 99 98 94 100 100 95 98 100 100 99 69 33 14

GFSGBSN_500_rhum_120.txt.gz
RH
76 49 38 19 13 12 10 9 9 8 8 7 7 7 7 7 7 7 7 8 8 7 8 8 9 14 21 28 27 24 27 36 41 38 11 13 15 16 23 33 18 18 20 23 26 25 23
96 88 86 63 40 32 22 17 14 12 11 11 10 10 11 10 11 10 10 11 12 12 10 12 13 12 19 28 23 27 32 40 41 31 10 13 14 18 20 27 39 23 19 20 23 27 27
97 89 83 78 93 84 74 65 45 47 26 19 24 27 29 26 28 34 36 37 31 18 15 21 36 41 50 46 46 40 31 46 42 20 14 13 19 26 28 32 32 43 32 29 29 31 32
98 94 95 92 78 88 100 96 87 76 83 74 75 77 65 60 70 64 70 70 60 58 58 64 50 55 61 60 56 40 42 52 40 20 21 22 25 23 25 30 33 37 47 43 37 35 35
99 97 100 100 93 80 98 93 92 96 96 91 77 84 74 72 80 76 73 79 81 77 76 77 77 77 63 61 63 53 48 47 30 18 17 20 29 32 28 23 31 43 40 38 39 38 34
100 88 96 100 90 94 97 99 96 88 87 96 94 94 93 94 82 72 66 87 87 82 77 74 81 75 70 73 62 56 48 34 23 15 15 17 21 35 36 36 39 47 42 38 39 41 36
100 100 100 82 97 99 97 96 92 95 94 97 95 95 90 88 82 65 68 84 87 79 72 68 75 80 73 67 59 53 51 35 27 25 25 25 30 44 57 47 49 48 42 40 44 41 33
97 98 100 99 78 100 97 97 98 90 95 98 96 88 84 81 70 65 73 90 84 74 75 80 77 71 67 61 54 48 39 39 44 44 48 47 42 54 49 46 46 48 46 46 42 42 36
97 89 98 99 92 93 99 98 98 97 92 95 88 95 96 78 80 79 76 74 84 79 63 64 64 57 50 46 44 49 51 54 49 54 60 49 47 46 44 48 51 49 48 47 42 43 41
92 99 100 100 99 100 91 100 98 97 92 93 100 84 93 84 88 80 78 66 77 66 54 42 49 43 49 56 53 66 60 58 60 59 54 45 45 41 38 40 42 39 42 40 38 36 33
100 96 91 98 99 99 100 98 100 100 98 100 98 97 97 89 90 71 64 57 59 70 58 42 34 37 43 48 50 54 61 58 57 55 50 47 47 44 41 39 37 36 40 42 42 40 37
97 100 100 100 98 98 98 99 99 100 99 98 100 95 96 97 90 71 64 50 43 47 49 43 40 38 44 52 57 58 57 56 54 50 48 51 46 46 48 47 44 42 42 42 39 37 32
25 58 98 100 100 100 100 98 98 100 99 100 99 96 97 94 83 79 69 50 47 50 44 43 43 48 54 55 57 58 59 57 53 49 48 48 46 46 46 46 48 47 47 42 37 34 30
21 30 32 58 100 100 100 100 100 100 98 100 100 99 100 99 100 100 100 81 74 52 54 52 49 53 62 69 66 64 59 51 51 52 53 48 47 52 52 49 47 45 44 42 39 36 34
30 40 66 37 45 78 100 100 100 100 100 100 99 99 98 100 100 100 100 99 63 60 69 77 79 78 66 62 70 61 54 49 48 52 59 58 53 52 50 48 46 43 44 51 69 56 52
39 45 68 80 60 58 82 100 100 100 100 100 100 99 94 100 100 100 100 89 61 66 79 81 95 82 62 58 63 63 56 50 54 57 68 59 52 48 49 48 47 47 50 57 78 94 75
54 63 63 87 100 100 75 82 100 100 100 100 100 97 99 100 100 100 93 68 63 60 80 78 72 80 69 62 64 68 62 62 60 61 63 56 52 46 46 45 54 58 58 70 95 92 72
88 100 80 76 95 100 100 55 73 100 100 100 100 99 99 100 100 98 91 69 76 71 79 81 72 70 68 74 73 72 64 63 61 54 47 40 44 39 40 46 78 78 93 100 100 95 57
54 100 100 98 88 100 100 79 41 66 100 100 100 100 100 100 100 98 93 82 86 84 86 85 81 79 83 78 67 62 60 50 39 37 41 64 100 98 92 85 88 100 100 100 98 77 36
70 96 80 100 100 100 100 100 50 40 54 87 100 100 100 100 100 100 100 94 97 93 97 99 89 85 75 66 56 48 38 42 43 47 51 100 94 86 73 93 95 86 75 82 100 47 69
99 100 100 100 100 100 100 100 72 44 49 56 51 62 94 100 97 96 100 94 88 78 80 76 73 72 55 42 31 21 23 29 28 35 47 59 87 100 99 99 100 99 85 84 93 24 37
100 100 100 100 100 90 96 100 86 48 56 66 61 54 41 40 58 98 98 89 94 95 100 92 61 40 18 13 11 11 12 11 9 27 45 61 71 100 93 96 92 100 91 80 86 22 54
100 92 95 94 100 100 100 100 86 46 53 66 74 77 63 39 34 32 27 31 30 23 19 20 14 11 10 11 16 17 14 25 45 68 74 90 99 100 94 93 100 92 62 80 39 14 16
100 91 90 85 92 88 99 98 97 87 47 49 55 59 55 38 32 28 26 22 20 18 15 17 14 12 10 9 9 9 15 42 51 45 40 56 99 100 100 99 100 84 73 60 17 18 52
98 100 100 100 100 100 91 92 99 99 73 33 36 51 73 31 27 23 20 19 18 24 13 13 13 13 16 18 26 39 38 17 10 90 87 98 100 100 94 69 86 82 57 23 20 39 72
100 100 100 100 100 100 100 100 100 100 100 77 40 39 29 24 19 19 20 17 18 17 16 16 32 35 29 26 40 43 16 20 33 93 100 100 100 100 89 76 57 23 13 34 47 49 81
100 99 93 90 98 86 90 100 100 100 100 79 60 50 44 26 25 34 30 40 48 81 43 42 47 65 53 50 91 100 90 81 99 100 100 100 100 100 84 52 22 23 57 80 72 80 99
67 62 55 57 72 88 95 100 100 100 100 87 68 64 51 39 41 39 42 53 78 86 63 85 87 55 70 75 56 89 100 87 98 100 92 99 87 74 57 66 49 71 80 95 100 100 100
66 67 63 62 70 70 87 100 100 100 100 83 68 54 50 39 43 48 96 100 98 100 99 100 93 83 86 84 87 99 100 99 88 75 70 62 58 73 99 77 86 86 97 100 100 99 97

GFSGBSN_500_rhum_126.txt.gz
RH
98 97 91 83 76 67 50 42 31 22 11 8 7 7 6 6 5 5 5 5 5 8 21 7 5 6 6 7 7 7 8 9 9 11 13 18 44 48 45 46 45 36 14 14 16 19 23
95 98 97 96 97 98 95 62 41 22 22 17 12 9 9 9 8 8 7 7 6 6 23 9 7 8 8 10 10 11 17 22 18 21 28 41 52 55 46 43 37 31 19 14 14 14 19
97 94 97 98 96 96 92 97 100 88 70 45 32 21 18 19 14 12 10 12 9 8 12 10 10 10 15 28 32 36 34 29 40 41 43 48 57 53 47 43 41 36 25 16 14 17 23
97 98 96 98 90 89 98 91 93 78 86 92 91 83 72 46 42 28 20 19 16 13 10 11 19 21 29 37 41 54 60 66 66 64 64 64 61 47 46 46 51 45 36 25 25 24 26
95 98 90 88 97 98 91 82 97 83 75 73 86 94 95 95 87 65 55 59 64 48 41 32 37 34 49 51 54 53 60 68 75 71 67 61 48 40 34 44 50 48 42 35 28 22 26
98 91 78 96 96 98 97 91 79 73 85 99 94 97 96 88 96 92 87 84 79 70 66 64 61 55 52 56 63 62 66 76 76 69 66 63 56 58 54 51 46 41 36 33 24 29 30
100 96 99 98 99 94 96 98 93 92 87 100 98 91 92 83 93 88 82 91 88 77 77 66 68 66 66 67 64 61 73 76 72 68 62 61 66 64 53 48 46 39 35 34 36 39 36
97 98 100 100 100 99 88 93 97 83 85 97 95 95 85 88 98 94 80 79 71 86 81 66 72 69 73 69 54 50 71 77 75 68 68 71 68 61 56 50 45 42 40 42 40 39 35
71 75 98 98 98 98 98 100 98 84 92 97 98 99 100 98 98 98 90 80 68 93 89 74 70 72 71 64 55 48 63 74 80 80 81 73 64 50 45 46 46 44 45 45 40 36 35
28 50 55 68 76 89 98 97 99 97 98 95 98 100 97 98 97 100 100 85 68 93 95 66 75 64 65 67 56 57 53 66 73 77 68 59 48 48 53 50 45 42 42 41 38 36 36
13 12 15 25 40 32 56 81 96 94 99 83 99 98 98 97 98 94 100 93 87 74 97 75 64 68 66 67 52 52 50 57 63 63 51 43 48 53 53 50 46 44 44 42 40 37 34
12 12 12 12 11 13 11 30 28 73 89 88 79 77 98 98 99 98 89 96 99 100 80 81 66 63 60 59 55 50 52 46 47 46 44 47 51 56 58 58 51 47 48 46 42 39 35
6 6 6 7 7 8 8 9 11 12 24 40 67 77 86 99 100 98 99 99 100 88 76 78 78 75 69 68 63 56 50 47 46 46 45 50 58 64 64 62 58 54 51 50 46 42 43
6 5 4 4 7 17 8 25 14 12 11 12 18 52 72 93 98 86 97 100 92 56 70 82 76 78 75 66 64 63 51 46 45 47 49 56 62 61 64 66 57 53 52 52 51 52 44
8 6 5 15 80 87 65 15 99 50 66 35 18 16 29 79 100 100 100 99 78 75 71 75 87 86 82 78 70 64 54 49 50 54 58 58 62 68 69 66 60 50 51 54 53 52 47
12 11 8 12 42 100 100 100 63 70 100 100 97 57 34 40 82 100 100 91 83 73 76 79 91 97 100 93 76 64 59 58 53 53 55 57 67 65 67 64 60 57 53 55 58 57 55
16 16 13 10 12 100 100 100 100 100 100 94 94 100 91 76 89 100 96 67 78 76 87 94 99 100 100 96 96 78 62 62 55 56 66 72 82 77 69 58 64 60 53 54 65 71 73
19 19 17 14 9 99 100 100 100 87 95 100 100 100 100 100 100 100 89 64 79 76 96 100 100 100 100 100 100 99 98 94 80 70 92 100 94 91 74 70 64 60 57 55 96 78 83
26 20 18 14 11 77 94 99 100 100 100 100 100 100 100 100 100 78 82 100 94 94 100 100 100 100 100 100 99 100 100 100 97 99 100 100 90 100 89 78 77 64 74 63 99 100 70
33 25 20 12 9 63 100 100 100 100 100 96 100 100 99 97 100 100 83 99 100 100 100 96 96 100 100 100 100 100 100 100 100 100 100 100 97 100 98 100 100 96 99 100 99 95 96
42 31 17 16 12 16 48 100 100 100 100 100 74 92 95 78 79 90 84 78 94 98 100 100 99 100 100 100 100 99 100 100 100 100 100 99 88 99 87 87 99 99 100 96 91 97 100
46 23 28 34 24 16 44 50 99 100 100 100 100 99 98 82 91 100 100 94 90 87 88 98 94 100 100 99 100 100 100 100 99 100 100 100 86 96 80 83 77 71 62 59 91 88 100
31 35 39 41 43 22 83 94 76 100 100 100 100 100 100 100 100 100 93 84 76 100 100 100 100 100 100 97 100 100 100 100 99 100 100 100 100 100 88 92 89 90 58 67 56 62 57
41 49 44 52 56 50 58 86 91 100 100 100 100 99 100 94 99 90 72 81 88 100 91 99 98 100 100 100 100 100 98 98 98 90 94 98 98 81 79 65 67 69 63 49 36 35 40
69 53 79 79 52 85 100 97 60 51 95 96 100 100 100 100 100 100 91 86 84 90 100 98 100 100 100 100 100 100 100 98 86 93 90 90 81 77 72 42 31 38 38 28 35 24 51
64 75 100 82 73 74 100 100 100 100 100 97 100 100 100 100 100 95 74 67 57 73 67 74 95 100 100 100 100 96 94 90 86 77 73 62 50 47 54 45 23 25 22 22 35 51 53
67 95 100 82 72 47 94 93 87 100 100 100 100 100 100 99 97 69 55 65 63 95 98 49 44 41 46 51 50 58 47 34 31 24 16 15 13 13 12 44 35 18 40 85 99 68 65
91 100 100 77 100 92 94 91 100 100 100 100 100 100 93 67 58 54 72 58 64 81 82 85 72 65 50 36 24 19 16 15 14 12 14 15 61 51 56 46 50 74 100 97 99 84 52
100 100 100 94 100 100 100 100 100 100 94 88 93 81 78 49 43 45 43 64 49 84 90 83 78 84 55 63 73 85 64 38 28 26 26 24 51 71 100 100 100 100 100 91 74 63 49